When you browse on this site, cookies collect data to enhance your experience and personalize the content and advertising you see.
Visit our Privacy Policy to learn more. By continuing to use the site, you agree to this use of cookies and data.
  • In Schweiz
  • Länderverzeichnis
  • Für 7 Tage
  • Wassertemperatur
  • Satellitenkarten
  • Wetterkarte
  • Widgets
  • user-avatar
    Anmelden

    Stündliche Wetter Asadabad

    Heute, 17 Juni, Montag

    Zeit Temperatur Niederschläge Wind Luftdruck Luftfeuchtigkeit
    00:00 +25°C° 0 mm 3 m/S 655 mmHg 27%
    01:00 +25°C° 0 mm 3 m/S 654 mmHg 28%
    02:00 +24°C° 0 mm 3 m/S 654 mmHg 30%
    03:00 +22°C° 0 mm 3 m/S 654 mmHg 30%
    04:00 +22°C° 0 mm 3 m/S 654 mmHg 30%
    05:00 +22°C° 0 mm 4 m/S 654 mmHg 30%
    06:00 +24°C° 0 mm 3 m/S 654 mmHg 28%
    07:00 +26°C° 0 mm 3 m/S 655 mmHg 26%
    08:00 +28°C° 0 mm 2 m/S 656 mmHg 23%
    09:00 +30°C° 0 mm 2 m/S 656 mmHg 21%
    10:00 +31°C° 0 mm 2 m/S 656 mmHg 19%
    11:00 +32°C° 0 mm 1 m/S 656 mmHg 17%
    12:00 +34°C° 0 mm 2 m/S 656 mmHg 17%
    13:00 +34°C° 0 mm 2 m/S 656 mmHg 16%
    14:00 +35°C° 0 mm 2 m/S 655 mmHg 16%
    15:00 +34°C° 0 mm 2 m/S 655 mmHg 19%
    16:00 +31°C° 0 mm 3 m/S 655 mmHg 21%
    17:00 +30°C° 0 mm 3 m/S 654 mmHg 23%
    18:00 +29°C° 0 mm 3 m/S 654 mmHg 26%
    19:00 +28°C° 0 mm 2 m/S 654 mmHg 29%
    20:00 +27°C° 0 mm 2 m/S 654 mmHg 31%
    21:00 +26°C° 0 mm 2 m/S 654 mmHg 31%
    22:00 +26°C° 0 mm 2 m/S 654 mmHg 30%
    23:00 +25°C° 0 mm 3 m/S 654 mmHg 29%

    Morgen, 18 Juni, Dienstag

    Zeit Temperatur Niederschläge Wind Luftdruck Luftfeuchtigkeit
    00:00 +25°C° 0 mm 3 m/S 654 mmHg 29%
    01:00 +24°C° 0 mm 3 m/S 653 mmHg 28%
    02:00 +24°C° 0 mm 3 m/S 653 mmHg 28%
    03:00 +22°C° 0 mm 3 m/S 653 mmHg 29%
    04:00 +22°C° 0 mm 3 m/S 653 mmHg 29%
    05:00 +21°C° 0 mm 3 m/S 653 mmHg 29%
    06:00 +24°C° 0 mm 2 m/S 653 mmHg 27%
    07:00 +26°C° 0 mm 2 m/S 654 mmHg 24%
    08:00 +28°C° 0 mm 1 m/S 654 mmHg 22%
    09:00 +29°C° 0 mm 2 m/S 655 mmHg 20%
    10:00 +31°C° 0 mm 2 m/S 655 mmHg 19%
    11:00 +32°C° 0 mm 2 m/S 655 mmHg 18%
    12:00 +32°C° 0 mm 2 m/S 655 mmHg 18%
    13:00 +34°C° 0 mm 2 m/S 655 mmHg 18%
    14:00 +34°C° 0 mm 2 m/S 655 mmHg 18%
    15:00 +34°C° 0 mm 2 m/S 654 mmHg 19%
    16:00 +32°C° 0 mm 2 m/S 654 mmHg 21%
    17:00 +32°C° 0 mm 2 m/S 653 mmHg 23%
    18:00 +30°C° 0 mm 2 m/S 653 mmHg 27%
    19:00 +29°C° 0 mm 1 m/S 653 mmHg 31%
    20:00 +27°C° 0 mm 1 m/S 653 mmHg 36%
    21:00 +27°C° 0 mm 1 m/S 653 mmHg 35%
    22:00 +26°C° 0 mm 1 m/S 653 mmHg 34%
    23:00 +26°C° 0 mm 1 m/S 653 mmHg 33%

    übermorgen, 19 Juni, Mittwoch

    Zeit Temperatur Niederschläge Wind Luftdruck Luftfeuchtigkeit
    00:00 +25°C° 0 mm 2 m/S 653 mmHg 34%
    01:00 +25°C° 0 mm 2 m/S 653 mmHg 34%
    02:00 +24°C° 0 mm 2 m/S 653 mmHg 35%
    03:00 +23°C° 0 mm 2 m/S 653 mmHg 36%
    04:00 +23°C° 0 mm 2 m/S 653 mmHg 37%
    05:00 +22°C° 0 mm 1 m/S 653 mmHg 38%
    06:00 +24°C° 0 mm 1 m/S 653 mmHg 34%
    07:00 +26°C° 0 mm 1 m/S 654 mmHg 31%
    08:00 +26°C° 0 mm 0 m/S 655 mmHg 27%
    09:00 +29°C° 0 mm 1 m/S 655 mmHg 26%
    10:00 +30°C° 0 mm 2 m/S 655 mmHg 25%
    11:00 +33°C° 0 mm 3 m/S 655 mmHg 24%
    12:00 +33°C° 0 mm 3 m/S 655 mmHg 24%
    13:00 +34°C° 0 mm 3 m/S 655 mmHg 23%
    14:00 +34°C° 0 mm 3 m/S 655 mmHg 22%
    15:00 +34°C° 0 mm 2 m/S 655 mmHg 22%
    16:00 +34°C° 0 mm 2 m/S 654 mmHg 21%
    17:00 +34°C° 0 mm 2 m/S 654 mmHg 21%
    18:00 +32°C° 0 mm 1 m/S 654 mmHg 25%
    19:00 +30°C° 0 mm 1 m/S 654 mmHg 30%
    20:00 +28°C° 0 mm 1 m/S 654 mmHg 34%
    21:00 +27°C° 0.3 mm 2 m/S 654 mmHg 37%
    22:00 +26°C° 0.3 mm 2 m/S 654 mmHg 40%
    23:00 +26°C° 0.3 mm 3 m/S 654 mmHg 43%

    20 Juni, Donnerstag

    Zeit Temperatur Niederschläge Wind Luftdruck Luftfeuchtigkeit
    00:00 +25°C° 0.3 mm 3 m/S 654 mmHg 45%
    01:00 +24°C° 0.3 mm 3 m/S 654 mmHg 47%
    02:00 +24°C° 0.3 mm 3 m/S 653 mmHg 48%
    03:00 +24°C° 0.2 mm 3 m/S 653 mmHg 48%
    04:00 +23°C° 0.2 mm 2 m/S 653 mmHg 48%
    05:00 +23°C° 0.2 mm 2 m/S 653 mmHg 48%
    06:00 +25°C° 0.1 mm 2 m/S 654 mmHg 43%
    07:00 +26°C° 0.1 mm 1 m/S 655 mmHg 38%
    08:00 +28°C° 0.1 mm 1 m/S 655 mmHg 33%
    09:00 +29°C° 0 mm 2 m/S 656 mmHg 32%
    10:00 +30°C° 0 mm 3 m/S 656 mmHg 31%
    11:00 +33°C° 0 mm 3 m/S 656 mmHg 30%
    12:00 +33°C° 0 mm 4 m/S 656 mmHg 30%
    13:00 +33°C° 0 mm 4 m/S 656 mmHg 30%
    14:00 +34°C° 0 mm 4 m/S 655 mmHg 29%
    15:00 +30°C° 1.7 mm 4 m/S 655 mmHg 41%
    16:00 +27°C° 1.7 mm 3 m/S 654 mmHg 53%
    17:00 +24°C° 1.7 mm 3 m/S 653 mmHg 65%
    18:00 +24°C° 0 mm 3 m/S 653 mmHg 61%
    19:00 +25°C° 0 mm 3 m/S 654 mmHg 57%
    20:00 +25°C° 0 mm 2 m/S 654 mmHg 53%
    21:00 +25°C° 0 mm 2 m/S 655 mmHg 53%
    22:00 +25°C° 0 mm 2 m/S 655 mmHg 53%
    23:00 +24°C° 0 mm 1 m/S 655 mmHg 53%

    21 Juni, Freitag

    Zeit Temperatur Niederschläge Wind Luftdruck Luftfeuchtigkeit
    00:00 +24°C° 0.2 mm 1 m/S 655 mmHg 55%
    01:00 +24°C° 0.2 mm 1 m/S 654 mmHg 56%
    02:00 +23°C° 0.2 mm 1 m/S 654 mmHg 58%
    03:00 +23°C° 0.1 mm 1 m/S 654 mmHg 57%
    04:00 +23°C° 0.1 mm 1 m/S 654 mmHg 57%
    05:00 +22°C° 0.1 mm 1 m/S 654 mmHg 57%
    06:00 +24°C° 0 mm 1 m/S 655 mmHg 51%
    07:00 +26°C° 0 mm 1 m/S 655 mmHg 44%
    08:00 +26°C° 0 mm 0 m/S 656 mmHg 38%
    09:00 +29°C° 0 mm 1 m/S 656 mmHg 36%
    10:00 +30°C° 0 mm 2 m/S 656 mmHg 34%
    11:00 +31°C° 0 mm 2 m/S 656 mmHg 31%
    12:00 +32°C° 0 mm 2 m/S 656 mmHg 30%
    13:00 +34°C° 0 mm 2 m/S 656 mmHg 29%
    14:00 +35°C° 0 mm 2 m/S 656 mmHg 27%
    15:00 +34°C° 0.1 mm 2 m/S 655 mmHg 29%
    16:00 +34°C° 0.1 mm 2 m/S 655 mmHg 31%
    17:00 +32°C° 0.1 mm 2 m/S 655 mmHg 33%
    18:00 +31°C° 0 mm 2 m/S 654 mmHg 36%
    19:00 +29°C° 0 mm 2 m/S 654 mmHg 39%
    20:00 +28°C° 0 mm 1 m/S 654 mmHg 43%
    21:00 +28°C° 0 mm 1 m/S 655 mmHg 43%
    22:00 +27°C° 0 mm 2 m/S 655 mmHg 42%
    23:00 +27°C° 0 mm 2 m/S 655 mmHg 42%

    22 Juni, Samstag

    Zeit Temperatur Niederschläge Wind Luftdruck Luftfeuchtigkeit
    00:00 +27°C° 0 mm 2 m/S 655 mmHg 42%
    01:00 +26°C° 0 mm 2 m/S 654 mmHg 42%
    02:00 +26°C° 0 mm 2 m/S 654 mmHg 43%
    03:00 +25°C° 0 mm 2 m/S 654 mmHg 42%
    04:00 +25°C° 0 mm 2 m/S 654 mmHg 42%
    05:00 +25°C° 0 mm 2 m/S 654 mmHg 42%
    06:00 +27°C° 0 mm 2 m/S 655 mmHg 38%
    07:00 +28°C° 0 mm 1 m/S 655 mmHg 34%
    08:00 +30°C° 0 mm 1 m/S 656 mmHg 30%
    09:00 +31°C° 0 mm 1 m/S 656 mmHg 29%
    10:00 +34°C° 0 mm 2 m/S 656 mmHg 28%
    11:00 +35°C° 0 mm 2 m/S 657 mmHg 27%
    12:00 +35°C° 0 mm 2 m/S 656 mmHg 25%
    13:00 +36°C° 0 mm 2 m/S 656 mmHg 24%
    14:00 +37°C° 0 mm 2 m/S 656 mmHg 22%
    15:00 +35°C° 0.2 mm 3 m/S 656 mmHg 26%
    16:00 +34°C° 0.2 mm 3 m/S 655 mmHg 30%
    17:00 +33°C° 0.2 mm 3 m/S 655 mmHg 34%
    18:00 +30°C° 0.1 mm 3 m/S 654 mmHg 37%
    19:00 +29°C° 0.1 mm 2 m/S 654 mmHg 41%
    20:00 +28°C° 0.1 mm 2 m/S 654 mmHg 44%
    21:00 +28°C° 0 mm 2 m/S 655 mmHg 43%
    22:00 +27°C° 0 mm 2 m/S 655 mmHg 41%
    23:00 +27°C° 0 mm 2 m/S 655 mmHg 40%
    Mehr zeigen